Total_Precipitation_Accumulation
0.14 0.17 0.22 0.19 0.21 0.24 0.30 0.45 0.64 0.46 0.13 0.03 0.04 0.08 0.13 0.15 0.17 0.16 0.13 0.14 0.19 0.26 0.34 0.36 0.36 0.44 0.67 1.19 2.10 3.39 4.06 3.44 2.52 2.12 2.00 2.16 2.46 2.88
0.19 0.22 0.24 0.24 0.25 0.26 0.31 0.36 0.51 0.63 0.39 0.07 0.05 0.08 0.19 0.20 0.17 0.16 0.15 0.17 0.17 0.19 0.23 0.29 0.35 0.42 0.54 0.77 1.24 2.06 3.28 3.93 3.52 2.81 2.37 2.39 2.56 2.85
0.22 0.25 0.26 0.28 0.32 0.29 0.32 0.36 0.38 0.45 0.44 0.13 0.05 0.06 0.16 0.22 0.21 0.16 0.15 0.17 0.15 0.16 0.20 0.27 0.36 0.45 0.56 0.70 0.93 1.36 2.09 3.09 3.73 3.53 3.02 2.69 2.60 2.66
0.23 0.27 0.29 0.28 0.30 0.28 0.31 0.33 0.30 0.29 0.35 0.23 0.07 0.06 0.11 0.19 0.27 0.28 0.22 0.20 0.18 0.19 0.22 0.31 0.41 0.46 0.54 0.67 0.85 1.12 1.50 2.07 2.84 3.32 3.26 2.95 2.68 2.66
0.26 0.29 0.30 0.30 0.29 0.26 0.31 0.31 0.25 0.23 0.28 0.31 0.16 0.09 0.12 0.15 0.27 0.37 0.32 0.27 0.24 0.23 0.24 0.27 0.34 0.44 0.49 0.58 0.73 0.93 1.13 1.36 1.80 2.58 3.13 3.06 2.88 2.75
0.19 0.19 0.26 0.36 0.35 0.34 0.38 0.32 0.29 0.32 0.37 0.43 0.32 0.20 0.20 0.20 0.31 0.43 0.46 0.42 0.35 0.28 0.27 0.26 0.31 0.44 0.47 0.45 0.46 0.56 0.76 1.07 1.41 1.88 2.54 2.95 2.86 2.73
0.12 0.12 0.20 0.35 0.40 0.55 0.66 0.58 0.57 0.66 0.65 0.67 0.59 0.47 0.40 0.41 0.45 0.46 0.60 0.59 0.50 0.41 0.34 0.28 0.28 0.28 0.30 0.31 0.33 0.40 0.52 0.72 1.06 1.45 1.89 2.39 2.73 2.78
0.13 0.10 0.13 0.26 0.30 0.39 0.54 0.66 0.76 0.91 0.97 0.97 0.91 0.80 0.58 0.50 0.50 0.60 0.68 0.81 0.77 0.55 0.50 0.38 0.34 0.37 0.32 0.29 0.33 0.38 0.48 0.63 0.88 1.21 1.55 1.87 2.27 2.66
0.11 0.10 0.11 0.20 0.27 0.34 0.40 0.45 0.51 0.67 0.91 1.03 1.07 0.79 0.61 0.54 0.66 0.81 0.80 0.89 0.85 0.76 0.85 0.71 0.46 0.44 0.40 0.44 0.51 0.47 0.50 0.59 0.74 0.98 1.27 1.55 1.83 2.18
0.08 0.09 0.09 0.14 0.26 0.48 0.50 0.45 0.40 0.47 0.68 0.90 1.11 0.96 0.78 0.78 1.01 1.27 1.33 1.23 0.90 0.78 0.95 1.03 0.66 0.54 0.55 0.59 0.60 0.53 0.51 0.54 0.63 0.81 1.05 1.27 1.51 1.80
0.05 0.06 0.09 0.13 0.28 0.54 0.58 0.46 0.33 0.32 0.41 0.68 0.97 1.11 1.09 1.14 1.32 1.64 1.78 1.61 1.22 0.82 0.87 1.09 0.95 0.79 0.81 0.86 0.78 0.65 0.54 0.54 0.59 0.70 0.84 0.98 1.21 1.55
0.08 0.07 0.12 0.25 0.39 0.55 0.54 0.51 0.59 0.45 0.39 0.40 0.47 0.58 0.70 0.79 1.02 1.36 1.60 1.62 1.34 1.19 0.99 1.06 1.19 1.17 1.28 1.14 0.99 0.75 0.56 0.54 0.58 0.63 0.67 0.74 0.93 1.11
0.17 0.13 0.11 0.27 0.39 0.49 0.57 0.58 0.77 0.71 0.54 0.53 0.48 0.44 0.45 0.56 0.73 1.04 1.39 1.60 1.55 1.32 1.08 1.28 1.55 1.38 1.38 1.24 1.09 1.00 0.71 0.54 0.53 0.61 0.65 0.65 0.73 0.81
0.19 0.13 0.13 0.26 0.38 0.48 0.49 0.55 0.62 0.60 0.52 0.46 0.39 0.37 0.41 0.47 0.57 0.75 1.07 1.29 1.32 1.21 1.02 1.29 1.78 1.57 1.39 1.16 1.06 1.14 0.98 0.73 0.59 0.59 0.62 0.77 0.79 0.78
0.19 0.22 0.27 0.33 0.34 0.26 0.26 0.37 0.42 0.41 0.51 0.50 0.40 0.34 0.39 0.49 0.55 0.60 0.76 1.04 1.19 1.17 1.12 1.19 1.55 1.63 1.56 1.30 1.03 1.08 1.15 1.04 0.79 0.71 0.69 0.68 0.63 0.61
0.30 0.27 0.30 0.28 0.22 0.16 0.14 0.17 0.20 0.30 0.47 0.54 0.44 0.33 0.31 0.39 0.51 0.63 0.74 0.91 1.13 1.17 1.18 1.27 1.52 1.82 1.74 1.31 1.12 1.05 1.02 1.16 1.05 0.89 0.80 0.73 0.62 0.47
0.45 0.49 0.36 0.27 0.24 0.20 0.15 0.11 0.13 0.20 0.29 0.32 0.37 0.37 0.35 0.37 0.44 0.56 0.78 0.93 1.08 1.15 1.25 1.42 1.58 1.76 1.82 1.73 1.55 1.19 0.97 0.94 1.01 1.00 0.95 0.92 0.82 0.61
0.51 0.53 0.33 0.23 0.21 0.21 0.20 0.17 0.14 0.15 0.18 0.24 0.31 0.36 0.40 0.43 0.45 0.48 0.65 0.87 1.03 1.09 1.18 1.32 1.53 1.73 1.88 1.98 1.79 1.40 1.09 0.95 1.02 1.11 1.06 1.03 1.01 0.83
0.38 0.30 0.22 0.19 0.20 0.19 0.20 0.20 0.17 0.14 0.18 0.23 0.26 0.30 0.36 0.41 0.43 0.45 0.53 0.69 0.87 1.02 1.13 1.23 1.38 1.57 1.71 1.86 1.96 1.63 1.29 1.06 1.06 1.26 1.27 1.10 0.99 0.90
0.24 0.24 0.22 0.20 0.20 0.21 0.22 0.21 0.19 0.17 0.18 0.20 0.21 0.23 0.30 0.38 0.40 0.40 0.46 0.60 0.76 0.90 1.00 1.11 1.30 1.47 1.59 1.55 1.65 1.72 1.62 1.31 1.13 1.26 1.39 1.31 1.19 1.14
0.19 0.19 0.19 0.21 0.21 0.22 0.22 0.21 0.21 0.20 0.18 0.19 0.20 0.20 0.23 0.29 0.33 0.33 0.39 0.49 0.65 0.80 0.89 0.93 1.08 1.27 1.48 1.50 1.42 1.41 1.62 1.65 1.32 1.24 1.35 1.42 1.41 1.33
0.18 0.19 0.18 0.19 0.22 0.23 0.23 0.22 0.22 0.19 0.17 0.18 0.17 0.17 0.18 0.22 0.27 0.28 0.34 0.42 0.51 0.64 0.77 0.85 0.96 1.18 1.46 1.60 1.52 1.39 1.48 1.66 1.69 1.50 1.39 1.35 1.37 1.29
0.24 0.24 0.22 0.20 0.20 0.22 0.23 0.23 0.23 0.19 0.16 0.16 0.16 0.15 0.16 0.18 0.19 0.24 0.28 0.34 0.43 0.52 0.63 0.79 0.93 1.09 1.31 1.51 1.61 1.52 1.43 1.47 1.56 1.60 1.71 1.52 1.14 0.89